Preview of NWS' New Version of Forecast
This preview is not operational and should not be used for support decisions.

Regional Weather Roundup (RWR)

Issued by National Weather Service (NWS)

                            
000
ASUS44 KMEG 220810
RWRTN 
TENNESSEE HOURLY STATE WEATHER ROUNDUP
NATIONAL WEATHER SERVICE MEMPHIS TN
300 AM CDT WED MAY 22 2019

TNZ002-004-019-021-049-052-054-088>092-220900-
WEST TENNESSEE
  
CITY           SKY/WX    TMP DP  RH WIND       PRES   REMARKS
MEMPHIS INTL   CLOUDY    76  68  76 SW8       29.82F                  
NWS MEMPHIS      N/A     78 N/A N/A MISG        N/A                   
JACKSON        MOCLDY    77  67  71 S12G21    29.85S                  
DYERSBURG      CLOUDY    67  62  84 N5        29.86F                  
SOMERVILLE     MOCLDY    77  66  69 S10       29.82F                  
COVINGTON      CLOUDY    68  64  88 N10       29.84S                  
UNION CITY     CLOUDY    66  63  88 CALM      29.85F                  
BOLIVAR        PTCLDY    75  66  73 S8G17     29.85S                  
PARIS          CLOUDY    77  66  69 S10       29.85R                  
LEXINGTON      CLEAR     75  66  73 S10G18    29.86S                  
SELMER         CLEAR     75  66  73 S12G18    29.87S                  
SAVANNAH       PTCLDY    77  68  73 S12G23    29.88F                  
$$

TNZ008-025-027-028-033-062-065-066-220900-
NORTH MIDDLE TENNESSEE
  
CITY           SKY/WX    TMP DP  RH WIND       PRES   REMARKS
NASHVILLE      FAIR      74  62  66 S12       29.92F                  
DICKSON        SUNNY     73  64  73 S13       29.88F                  
PORTLAND       PTCLDY    73  64  73 S8        29.92F                  
CLARKSVILLE    FAIR      73  63  70 SE8       29.86F                  
LEBANON        MOSUNNY   73  63  68 S7        29.92S                  
SMYRNA         FAIR      72  64  76 SE8       29.94F                  
MURFREESBORO   MOSUNNY   72  63  73 S7        29.93F                  
COOKEVILLE     CLEAR     72  63  73 S6G13     29.98S                  
LIVINGSTON     SUNNY     73  59  60 S9        29.98S                  
CROSSVILLE     FAIR      64  58  80 CALM      30.05R                  
ROCKWOOD       PTSUNNY   64  59  82 CALM      30.04R                  
$$

TNZ061-075-076-078-094-096-097-220900-
SOUTH MIDDLE TENNESSEE
  
CITY           SKY/WX    TMP DP  RH WIND       PRES   REMARKS
LAWRENCEBURG   MOSUNNY   72  64  78 S7        29.94F                  
LEWISBURG      MOSUNNY   70  63  78 S3        29.94F                  
FAYETTEVILLE   CLEAR     70  61  73 S3        29.98R                  
TULLAHOMA      CLEAR     70  63  78 SE3       29.98R                  
WINCHESTER     CLEAR     72  63  73 SE8       29.98S                  
MCMINNVILLE    CLEAR     72  63  73 VRB5      29.98S                  
COLUMBIA       CLEAR     75  66  73 S10G17    29.90F                  
SHELBYVILLE    CLEAR     66  63  88 CALM      29.97R                  
$$

TNZ017-018-042-046-047-220900-
NORTHEAST TENNESSEE
  
CITY           SKY/WX    TMP DP  RH WIND       PRES   REMARKS
TRI CITIES     FAIR      58  55  90 CALM      30.08S                  
ELIZABETHTON   FAIR      68  57  68 E8        30.10R                  
GREENEVILLE    SUNNY     68  57  68 CALM      30.05S                  
$$

TNZ012-013-036-069-073-074-220900-
CENTRAL EAST TENNESSEE
  
CITY           SKY/WX    TMP DP  RH WIND       PRES   REMARKS
KNOXVILLE      FAIR      68  58  70 NE5       29.99R                  
OAK RIDGE      FAIR      65  59  81 CALM      30.03R                  
DOWNTOWN KNOXV CLEAR     63  63 100 CALM      30.01R                  
GATLINBURG     CLEAR     61  59  94 E5        30.01R                  
MORRISTOWN     CLEAR     66  57  72 CALM      30.02R                  
JACKSBORO      MOCLDY    59  57  94 CALM      30.06R                  
$$

TNZ083-085-099-220900-
SOUTHEAST TENNESSEE
  
CITY           SKY/WX    TMP DP  RH WIND       PRES   REMARKS
CHATTANOOGA    FAIR      71  67  87 CALM      30.00R                  
DAYTON         CLOUDY    66  66 100 CALM      30.00R                  
$$

SKY/WX REPORTED AS FAIR MEANS FEW OR NO CLOUDS BELOW
12 THOUSAND FEET.